Year,Month,Day,Hour,Minute,Value (Times are PST for temperature in C)
2014,04,13,00,00,7.30
2014,04,13,00,01,7.30
2014,04,13,00,02,7.20
2014,04,13,00,03,7.20
2014,04,13,00,04,7.10
2014,04,13,00,05,7.10
2014,04,13,00,06,7.10
2014,04,13,00,07,7.00
2014,04,13,00,08,7.00
2014,04,13,00,09,7.00
2014,04,13,00,10,6.90
2014,04,13,00,11,6.90
2014,04,13,00,12,6.90
2014,04,13,00,13,6.90
2014,04,13,00,14,6.80
2014,04,13,00,15,6.80
2014,04,13,00,16,6.80
2014,04,13,00,17,6.80
2014,04,13,00,18,6.80
2014,04,13,00,19,6.70
2014,04,13,00,20,6.70
2014,04,13,00,21,6.70
2014,04,13,00,22,6.70
2014,04,13,00,23,6.60
2014,04,13,00,24,6.60
2014,04,13,00,25,6.60
2014,04,13,00,26,6.60
2014,04,13,00,27,6.60
2014,04,13,00,28,6.60
2014,04,13,00,29,6.50
2014,04,13,00,30,6.50
2014,04,13,00,31,6.50
2014,04,13,00,32,6.40
2014,04,13,00,33,6.40
2014,04,13,00,34,6.40
2014,04,13,00,35,6.30
2014,04,13,00,36,6.30
2014,04,13,00,37,6.30
2014,04,13,00,38,6.30
2014,04,13,00,39,6.30
2014,04,13,00,40,6.20
2014,04,13,00,41,6.20
2014,04,13,00,42,6.20
2014,04,13,00,43,6.20
2014,04,13,00,44,6.20
2014,04,13,00,45,6.20
2014,04,13,00,46,6.20
2014,04,13,00,47,6.10
2014,04,13,00,48,6.10
2014,04,13,00,49,6.10
2014,04,13,00,50,6.10
2014,04,13,00,51,6.10
2014,04,13,00,52,6.10
2014,04,13,00,53,6.10
2014,04,13,00,54,6.00
2014,04,13,00,55,6.00
2014,04,13,00,56,6.00
2014,04,13,00,57,6.00
2014,04,13,00,58,6.00
2014,04,13,00,59,6.00
2014,04,13,01,00,5.90
2014,04,13,01,01,5.90
2014,04,13,01,02,5.90
2014,04,13,01,03,5.90
2014,04,13,01,04,5.90
2014,04,13,01,05,5.90
2014,04,13,01,06,5.90
2014,04,13,01,07,5.90
2014,04,13,01,08,5.90
2014,04,13,01,09,5.90
2014,04,13,01,10,5.90
2014,04,13,01,11,5.90
2014,04,13,01,12,5.80
2014,04,13,01,13,5.80
2014,04,13,01,14,5.80
2014,04,13,01,15,5.80
2014,04,13,01,16,5.80
2014,04,13,01,17,5.80
2014,04,13,01,18,5.80
2014,04,13,01,19,5.80
2014,04,13,01,20,5.80
2014,04,13,01,21,5.80
2014,04,13,01,22,5.70
2014,04,13,01,23,5.70
2014,04,13,01,24,5.70
2014,04,13,01,25,5.70
2014,04,13,01,26,5.60
2014,04,13,01,27,5.60
2014,04,13,01,28,5.60
2014,04,13,01,29,5.60
2014,04,13,01,30,5.50
2014,04,13,01,31,5.50
2014,04,13,01,32,5.40
2014,04,13,01,33,5.40
2014,04,13,01,34,5.40
2014,04,13,01,35,5.40
2014,04,13,01,36,5.40
2014,04,13,01,37,5.40
2014,04,13,01,38,5.40
2014,04,13,01,39,5.40
2014,04,13,01,40,5.40
2014,04,13,01,41,5.40
2014,04,13,01,42,5.40
2014,04,13,01,43,5.40
2014,04,13,01,44,5.40
2014,04,13,01,45,5.40
2014,04,13,01,46,5.40
2014,04,13,01,47,5.40
2014,04,13,01,48,5.40
2014,04,13,01,49,5.50
2014,04,13,01,50,5.50
2014,04,13,01,51,5.50
2014,04,13,01,52,5.50
2014,04,13,01,53,5.40
2014,04,13,01,54,5.40
2014,04,13,01,55,5.40
2014,04,13,01,56,5.40
2014,04,13,01,57,5.40
2014,04,13,01,58,5.40
2014,04,13,01,59,5.40
2014,04,13,02,00,5.30
2014,04,13,02,01,5.30
2014,04,13,02,02,5.30
2014,04,13,02,03,5.30
2014,04,13,02,04,5.30
2014,04,13,02,05,5.30
2014,04,13,02,06,5.30
2014,04,13,02,07,5.30
2014,04,13,02,08,5.30
2014,04,13,02,09,5.30
2014,04,13,02,10,5.30
2014,04,13,02,11,5.30
2014,04,13,02,12,5.20
2014,04,13,02,13,5.20
2014,04,13,02,14,5.20
2014,04,13,02,15,5.20
2014,04,13,02,16,5.20
2014,04,13,02,17,5.10
2014,04,13,02,18,5.10
2014,04,13,02,19,5.10
2014,04,13,02,20,5.10
2014,04,13,02,21,5.10
2014,04,13,02,22,5.10
2014,04,13,02,23,5.10
2014,04,13,02,24,5.00
2014,04,13,02,25,5.00
2014,04,13,02,26,5.00
2014,04,13,02,27,4.90
2014,04,13,02,28,4.90
2014,04,13,02,29,4.90
2014,04,13,02,30,4.90
2014,04,13,02,31,4.90
2014,04,13,02,32,4.90
2014,04,13,02,33,4.90
2014,04,13,02,34,4.90
2014,04,13,02,35,4.80
2014,04,13,02,36,4.80
2014,04,13,02,37,4.80
2014,04,13,02,38,4.80
2014,04,13,02,39,4.80
2014,04,13,02,40,4.70
2014,04,13,02,41,4.70
2014,04,13,02,42,4.70
2014,04,13,02,43,4.70
2014,04,13,02,44,4.60
2014,04,13,02,45,4.60
2014,04,13,02,46,4.60
2014,04,13,02,47,4.60
2014,04,13,02,48,4.60
2014,04,13,02,49,4.60
2014,04,13,02,50,4.60
2014,04,13,02,51,4.50
2014,04,13,02,52,4.50
2014,04,13,02,53,4.50
2014,04,13,02,54,4.50
2014,04,13,02,55,4.50
2014,04,13,02,56,4.50
2014,04,13,02,57,4.40
2014,04,13,02,58,4.40
2014,04,13,02,59,4.40
2014,04,13,03,00,4.40
2014,04,13,03,01,4.40
2014,04,13,03,02,4.30
2014,04,13,03,03,4.30
2014,04,13,03,04,4.30
2014,04,13,03,05,4.30
2014,04,13,03,06,4.30
2014,04,13,03,07,4.30
2014,04,13,03,08,4.30
2014,04,13,03,09,4.20
2014,04,13,03,10,4.20
2014,04,13,03,11,4.20
2014,04,13,03,12,4.20
2014,04,13,03,13,4.10
2014,04,13,03,14,4.10
2014,04,13,03,15,4.10
2014,04,13,03,16,4.00
2014,04,13,03,17,4.00
2014,04,13,03,18,4.00
2014,04,13,03,19,4.00
2014,04,13,03,20,4.00
2014,04,13,03,21,3.90
2014,04,13,03,22,3.90
2014,04,13,03,23,3.90
2014,04,13,03,24,3.90
2014,04,13,03,25,3.80
2014,04,13,03,26,3.80
2014,04,13,03,27,3.80
2014,04,13,03,28,3.80
2014,04,13,03,29,3.80
2014,04,13,03,30,3.80
2014,04,13,03,31,3.80
2014,04,13,03,32,3.80
2014,04,13,03,33,3.80
2014,04,13,03,34,3.80
2014,04,13,03,35,3.80
2014,04,13,03,36,3.80
2014,04,13,03,37,3.80
2014,04,13,03,38,3.80
2014,04,13,03,39,3.80
2014,04,13,03,40,3.80
2014,04,13,03,41,3.80
2014,04,13,03,42,3.80
2014,04,13,03,43,3.80
2014,04,13,03,44,3.80
2014,04,13,03,45,3.70
2014,04,13,03,46,3.70
2014,04,13,03,47,3.70
2014,04,13,03,48,3.70
2014,04,13,03,49,3.70
2014,04,13,03,50,3.70
2014,04,13,03,51,3.70
2014,04,13,03,52,3.60
2014,04,13,03,53,3.60
2014,04,13,03,54,3.60
2014,04,13,03,55,3.60
2014,04,13,03,56,3.60
2014,04,13,03,57,3.60
2014,04,13,03,58,3.60
2014,04,13,03,59,3.60
2014,04,13,04,00,3.50
2014,04,13,04,01,3.50
2014,04,13,04,02,3.50
2014,04,13,04,03,3.50
2014,04,13,04,04,3.40
2014,04,13,04,05,3.40
2014,04,13,04,06,3.40
2014,04,13,04,07,3.40
2014,04,13,04,08,3.40
2014,04,13,04,09,3.40
2014,04,13,04,10,3.40
2014,04,13,04,11,3.30
2014,04,13,04,12,3.30
2014,04,13,04,13,3.30
2014,04,13,04,14,3.30
2014,04,13,04,15,3.30
2014,04,13,04,16,3.30
2014,04,13,04,17,3.30
2014,04,13,04,18,3.30
2014,04,13,04,19,3.30
2014,04,13,04,20,3.30
2014,04,13,04,21,3.30
2014,04,13,04,22,3.30
2014,04,13,04,23,3.30
2014,04,13,04,24,3.30
2014,04,13,04,25,3.30
2014,04,13,04,26,3.30
2014,04,13,04,27,3.30
2014,04,13,04,28,3.30
2014,04,13,04,29,3.30
2014,04,13,04,30,3.30
2014,04,13,04,31,3.30
2014,04,13,04,32,3.30
2014,04,13,04,33,3.30
2014,04,13,04,34,3.30
2014,04,13,04,35,3.30
2014,04,13,04,36,3.20
2014,04,13,04,37,3.20
2014,04,13,04,38,3.20
2014,04,13,04,39,3.20
2014,04,13,04,40,3.20
2014,04,13,04,41,3.20
2014,04,13,04,42,3.20
2014,04,13,04,43,3.20
2014,04,13,04,44,3.10
2014,04,13,04,45,3.10
2014,04,13,04,46,3.10
2014,04,13,04,47,3.10
2014,04,13,04,48,3.10
2014,04,13,04,49,3.10
2014,04,13,04,50,3.10
2014,04,13,04,51,3.10
2014,04,13,04,52,3.10
2014,04,13,04,53,3.10
2014,04,13,04,54,3.00
2014,04,13,04,55,3.00
2014,04,13,04,56,3.00
2014,04,13,04,57,3.00
2014,04,13,04,58,3.00
2014,04,13,04,59,3.00
2014,04,13,05,00,3.00
2014,04,13,05,01,3.00
2014,04,13,05,02,2.90
2014,04,13,05,03,2.90
2014,04,13,05,04,2.90
2014,04,13,05,05,2.90
2014,04,13,05,06,2.90
2014,04,13,05,07,2.90
2014,04,13,05,08,2.90
2014,04,13,05,09,2.90
2014,04,13,05,10,2.90
2014,04,13,05,11,2.90
2014,04,13,05,12,2.90
2014,04,13,05,13,2.90
2014,04,13,05,14,2.80
2014,04,13,05,15,2.80
2014,04,13,05,16,2.80
2014,04,13,05,17,2.80
2014,04,13,05,18,2.80
2014,04,13,05,19,2.80
2014,04,13,05,20,2.70
2014,04,13,05,21,2.70
2014,04,13,05,22,2.70
2014,04,13,05,23,2.70
2014,04,13,05,24,2.70
2014,04,13,05,25,2.70
2014,04,13,05,26,2.70
2014,04,13,05,27,2.70
2014,04,13,05,28,2.70
2014,04,13,05,29,2.70
2014,04,13,05,30,2.70
2014,04,13,05,31,2.60
2014,04,13,05,32,2.60
2014,04,13,05,33,2.60
2014,04,13,05,34,2.60
2014,04,13,05,35,2.60
2014,04,13,05,36,2.60
2014,04,13,05,37,2.60
2014,04,13,05,38,2.60
2014,04,13,05,39,2.60
2014,04,13,05,40,2.60
2014,04,13,05,41,2.60
2014,04,13,05,42,2.60
2014,04,13,05,43,2.50
2014,04,13,05,44,2.50
2014,04,13,05,45,2.50
2014,04,13,05,46,2.50
2014,04,13,05,47,2.50
2014,04,13,05,48,2.50
2014,04,13,05,49,2.40
2014,04,13,05,50,2.40
2014,04,13,05,51,2.40
2014,04,13,05,52,2.40
2014,04,13,05,53,2.40
2014,04,13,05,54,2.40
2014,04,13,05,55,2.40
2014,04,13,05,56,2.40
2014,04,13,05,57,2.40
2014,04,13,05,58,2.30
2014,04,13,05,59,2.30
2014,04,13,06,00,2.30
2014,04,13,06,01,2.30
2014,04,13,06,02,2.30
2014,04,13,06,03,2.30
2014,04,13,06,04,2.30
2014,04,13,06,05,2.20
2014,04,13,06,06,2.20
2014,04,13,06,07,2.20
2014,04,13,06,08,2.20
2014,04,13,06,09,2.20
2014,04,13,06,10,2.20
2014,04,13,06,11,2.20
2014,04,13,06,12,2.20
2014,04,13,06,13,2.20
2014,04,13,06,14,2.20
2014,04,13,06,15,2.20
2014,04,13,06,16,2.20
2014,04,13,06,17,2.20
2014,04,13,06,18,2.10
2014,04,13,06,19,2.10
2014,04,13,06,20,2.10
2014,04,13,06,21,2.10
2014,04,13,06,22,2.10
2014,04,13,06,23,2.10
2014,04,13,06,24,2.10
2014,04,13,06,25,2.10
2014,04,13,06,26,2.10
2014,04,13,06,27,2.00
2014,04,13,06,28,2.00
2014,04,13,06,29,2.00
2014,04,13,06,30,2.00
2014,04,13,06,31,2.00
2014,04,13,06,32,2.00
2014,04,13,06,33,2.00
2014,04,13,06,34,2.00
2014,04,13,06,35,2.00
2014,04,13,06,36,2.00
2014,04,13,06,37,2.00
2014,04,13,06,38,2.00
2014,04,13,06,39,1.90
2014,04,13,06,40,2.00
2014,04,13,06,41,2.00
2014,04,13,06,42,2.00
2014,04,13,06,43,1.90
2014,04,13,06,44,1.90
2014,04,13,06,45,2.00
2014,04,13,06,46,2.00
2014,04,13,06,47,2.00
2014,04,13,06,48,2.00
2014,04,13,06,49,2.00
2014,04,13,06,50,2.00
2014,04,13,06,51,2.00
2014,04,13,06,52,2.00
2014,04,13,06,53,2.00
2014,04,13,06,54,2.00
2014,04,13,06,55,2.00
2014,04,13,06,56,2.00
2014,04,13,06,57,2.00
2014,04,13,06,58,2.00
2014,04,13,06,59,2.00
2014,04,13,07,00,2.00
2014,04,13,07,01,2.10
2014,04,13,07,02,2.10
2014,04,13,07,03,2.20
2014,04,13,07,04,2.20
2014,04,13,07,05,2.20
2014,04,13,07,06,2.30
2014,04,13,07,07,2.30
2014,04,13,07,08,2.30
2014,04,13,07,09,2.30
2014,04,13,07,10,2.40
2014,04,13,07,11,2.40
2014,04,13,07,12,2.40
2014,04,13,07,13,2.40
2014,04,13,07,14,2.50
2014,04,13,07,15,2.50
2014,04,13,07,16,2.50
2014,04,13,07,17,2.50
2014,04,13,07,18,2.50
2014,04,13,07,19,2.60
2014,04,13,07,20,2.60
2014,04,13,07,21,2.60
2014,04,13,07,22,2.60
2014,04,13,07,23,2.60
2014,04,13,07,24,2.60
2014,04,13,07,25,2.60
2014,04,13,07,26,2.70
2014,04,13,07,27,2.70
2014,04,13,07,28,2.70
2014,04,13,07,29,2.70
2014,04,13,07,30,2.80
2014,04,13,07,31,2.80
2014,04,13,07,32,2.80
2014,04,13,07,33,2.80
2014,04,13,07,34,2.90
2014,04,13,07,35,2.90
2014,04,13,07,36,3.00
2014,04,13,07,37,3.00
2014,04,13,07,38,3.10
2014,04,13,07,39,3.10
2014,04,13,07,40,3.20
2014,04,13,07,41,3.20
2014,04,13,07,42,3.20
2014,04,13,07,43,3.30
2014,04,13,07,44,3.30
2014,04,13,07,45,3.30
2014,04,13,07,46,3.40
2014,04,13,07,47,3.40
2014,04,13,07,48,3.50
2014,04,13,07,49,3.50
2014,04,13,07,50,3.60
2014,04,13,07,51,3.60
2014,04,13,07,52,3.70
2014,04,13,07,53,3.80
2014,04,13,07,54,3.80
2014,04,13,07,55,3.90
2014,04,13,07,56,4.00
2014,04,13,07,57,4.00
2014,04,13,07,58,4.10
2014,04,13,07,59,4.10
2014,04,13,08,00,4.10
2014,04,13,08,01,4.20
2014,04,13,08,02,4.20
2014,04,13,08,03,4.20
2014,04,13,08,04,4.30
2014,04,13,08,05,4.30
2014,04,13,08,06,4.30
2014,04,13,08,07,4.40
2014,04,13,08,08,4.50
2014,04,13,08,09,4.50
2014,04,13,08,10,4.60
2014,04,13,08,11,4.70
2014,04,13,08,12,4.70
2014,04,13,08,13,4.80
2014,04,13,08,14,4.90
2014,04,13,08,15,4.90
2014,04,13,08,16,5.00
2014,04,13,08,17,5.00
2014,04,13,08,18,5.10
2014,04,13,08,19,5.10
2014,04,13,08,20,5.20
2014,04,13,08,21,5.20
2014,04,13,08,22,5.30
2014,04,13,08,23,5.40
2014,04,13,08,24,5.40
2014,04,13,08,25,5.50
2014,04,13,08,26,5.60
2014,04,13,08,27,5.70
2014,04,13,08,28,5.80
2014,04,13,08,29,5.80
2014,04,13,08,30,5.90
2014,04,13,08,31,6.00
2014,04,13,08,32,6.10
2014,04,13,08,33,6.20
2014,04,13,08,34,6.20
2014,04,13,08,35,6.30
2014,04,13,08,36,6.40
2014,04,13,08,37,6.50
2014,04,13,08,38,6.60
2014,04,13,08,39,6.70
2014,04,13,08,40,6.80
2014,04,13,08,41,6.90
2014,04,13,08,42,7.00
2014,04,13,08,43,7.10
2014,04,13,08,44,7.20
2014,04,13,08,45,7.30
2014,04,13,08,46,7.40
2014,04,13,08,47,7.40
2014,04,13,08,48,7.50
2014,04,13,08,49,7.60
2014,04,13,08,50,7.70
2014,04,13,08,51,7.80
2014,04,13,08,52,7.80
2014,04,13,08,53,7.90
2014,04,13,08,54,8.00
2014,04,13,08,55,8.10
2014,04,13,08,56,8.20
2014,04,13,08,57,8.20
2014,04,13,08,58,8.30
2014,04,13,08,59,8.40
2014,04,13,09,00,8.40
2014,04,13,09,01,8.50
2014,04,13,09,02,8.60
2014,04,13,09,03,8.70
2014,04,13,09,04,8.70
2014,04,13,09,05,8.80
2014,04,13,09,06,8.90
2014,04,13,09,07,9.00
2014,04,13,09,08,9.10
2014,04,13,09,09,9.10
2014,04,13,09,10,9.20
2014,04,13,09,11,9.20
2014,04,13,09,12,9.30
2014,04,13,09,13,9.30
2014,04,13,09,14,9.40
2014,04,13,09,15,9.40
2014,04,13,09,16,9.40
2014,04,13,09,17,9.50
2014,04,13,09,18,9.60
2014,04,13,09,19,9.60
2014,04,13,09,20,9.60
2014,04,13,09,21,9.70
2014,04,13,09,22,9.70
2014,04,13,09,23,9.80
2014,04,13,09,24,9.80
2014,04,13,09,25,9.80
2014,04,13,09,26,9.90
2014,04,13,09,27,9.90
2014,04,13,09,28,9.90
2014,04,13,09,29,10.00
2014,04,13,09,30,10.00
2014,04,13,09,31,10.00
2014,04,13,09,32,10.00
2014,04,13,09,33,10.00
2014,04,13,09,34,10.00
2014,04,13,09,35,10.00
2014,04,13,09,36,10.10
2014,04,13,09,37,10.20
2014,04,13,09,38,10.20
2014,04,13,09,39,10.20
2014,04,13,09,40,10.30
2014,04,13,09,41,10.30
2014,04,13,09,42,10.30
2014,04,13,09,43,10.30
2014,04,13,09,44,10.40
2014,04,13,09,45,10.40
2014,04,13,09,46,10.50
2014,04,13,09,47,10.50
2014,04,13,09,48,10.50
2014,04,13,09,49,10.60
2014,04,13,09,50,10.60
2014,04,13,09,51,10.70
2014,04,13,09,52,10.70
2014,04,13,09,53,10.70
2014,04,13,09,54,10.70
2014,04,13,09,55,10.80
2014,04,13,09,56,10.80
2014,04,13,09,57,10.80
2014,04,13,09,58,10.90
2014,04,13,09,59,10.90
2014,04,13,10,00,11.00
2014,04,13,10,01,11.00
2014,04,13,10,02,11.10
2014,04,13,10,03,11.10
2014,04,13,10,04,11.20
2014,04,13,10,05,11.20
2014,04,13,10,06,11.20
2014,04,13,10,07,11.20
2014,04,13,10,08,11.30
2014,04,13,10,09,11.30
2014,04,13,10,10,11.40
2014,04,13,10,11,11.50
2014,04,13,10,12,11.50
2014,04,13,10,13,11.60
2014,04,13,10,14,11.60
2014,04,13,10,15,11.60
2014,04,13,10,16,11.70
2014,04,13,10,17,11.70
2014,04,13,10,18,11.80
2014,04,13,10,19,11.80
2014,04,13,10,20,11.90
2014,04,13,10,21,11.90
2014,04,13,10,22,11.90
2014,04,13,10,23,12.00
2014,04,13,10,24,12.00
2014,04,13,10,25,12.00
2014,04,13,10,26,12.10
2014,04,13,10,27,12.10
2014,04,13,10,28,12.10
2014,04,13,10,29,12.20
2014,04,13,10,30,12.20
2014,04,13,10,31,12.20
2014,04,13,10,32,12.30
2014,04,13,10,33,12.30
2014,04,13,10,34,12.30
2014,04,13,10,35,12.40
2014,04,13,10,36,12.40
2014,04,13,10,37,12.50
2014,04,13,10,38,12.50
2014,04,13,10,39,12.60
2014,04,13,10,40,12.60
2014,04,13,10,41,12.70
2014,04,13,10,42,12.70
2014,04,13,10,43,12.70
2014,04,13,10,44,12.70
2014,04,13,10,45,12.80
2014,04,13,10,46,12.80
2014,04,13,10,47,12.80
2014,04,13,10,48,12.80
2014,04,13,10,49,12.80
2014,04,13,10,50,12.80
2014,04,13,10,51,12.80
2014,04,13,10,52,12.90
2014,04,13,10,53,12.90
2014,04,13,10,54,12.90
2014,04,13,10,55,12.90
2014,04,13,10,56,12.90
2014,04,13,10,57,12.90
2014,04,13,10,58,12.90
2014,04,13,10,59,13.00
2014,04,13,11,00,13.00
2014,04,13,11,01,13.10
2014,04,13,11,02,13.20
2014,04,13,11,03,13.30
2014,04,13,11,04,13.30
2014,04,13,11,05,13.40
2014,04,13,11,06,13.50
2014,04,13,11,07,13.60
2014,04,13,11,08,13.70
2014,04,13,11,09,13.70
2014,04,13,11,10,13.80
2014,04,13,11,11,13.80
2014,04,13,11,12,13.80
2014,04,13,11,13,13.90
2014,04,13,11,14,13.90
2014,04,13,11,15,13.90
2014,04,13,11,16,13.90
2014,04,13,11,17,13.90
2014,04,13,11,18,13.90
2014,04,13,11,19,13.90
2014,04,13,11,20,13.90
2014,04,13,11,21,13.90
2014,04,13,11,22,14.00
2014,04,13,11,23,14.00
2014,04,13,11,24,14.10
2014,04,13,11,25,14.10
2014,04,13,11,26,14.10
2014,04,13,11,27,14.10
2014,04,13,11,28,14.20
2014,04,13,11,29,14.20
2014,04,13,11,30,14.20
2014,04,13,11,31,14.20
2014,04,13,11,32,14.30
2014,04,13,11,33,14.30
2014,04,13,11,34,14.30
2014,04,13,11,35,14.30
2014,04,13,11,36,14.30
2014,04,13,11,37,14.40
2014,04,13,11,38,14.40
2014,04,13,11,39,14.40
2014,04,13,11,40,14.40
2014,04,13,11,41,14.40
2014,04,13,11,42,14.30
2014,04,13,11,43,14.30
2014,04,13,11,44,14.20
2014,04,13,11,45,14.20
2014,04,13,11,46,14.20
2014,04,13,11,47,14.20
2014,04,13,11,48,14.30
2014,04,13,11,49,14.30
2014,04,13,11,50,14.30
2014,04,13,11,51,14.30
2014,04,13,11,52,14.20
2014,04,13,11,53,14.20
2014,04,13,11,54,14.20
2014,04,13,11,55,14.10
2014,04,13,11,56,14.10
2014,04,13,11,57,14.00
2014,04,13,11,58,14.00
2014,04,13,11,59,14.00
2014,04,13,12,00,14.00
2014,04,13,12,01,14.00
2014,04,13,12,02,13.90
2014,04,13,12,03,13.90
2014,04,13,12,04,13.90
2014,04,13,12,05,13.90
2014,04,13,12,06,14.00
2014,04,13,12,07,14.00
2014,04,13,12,08,14.10
2014,04,13,12,09,14.10
2014,04,13,12,10,14.10
2014,04,13,12,11,14.10
2014,04,13,12,12,14.10
2014,04,13,12,13,14.10
2014,04,13,12,14,14.00
2014,04,13,12,15,14.00
2014,04,13,12,16,14.00
2014,04,13,12,17,14.10
2014,04,13,12,18,14.10
2014,04,13,12,19,14.10
2014,04,13,12,20,14.00
2014,04,13,12,21,14.00
2014,04,13,12,22,14.00
2014,04,13,12,23,14.00
2014,04,13,12,24,14.10
2014,04,13,12,25,14.10
2014,04,13,12,26,14.10
2014,04,13,12,27,14.10
2014,04,13,12,28,14.00
2014,04,13,12,29,13.90
2014,04,13,12,30,13.80
2014,04,13,12,31,13.70
2014,04,13,12,32,13.70
2014,04,13,12,33,13.70
2014,04,13,12,34,13.70
2014,04,13,12,35,13.80
2014,04,13,12,36,13.80
2014,04,13,12,37,13.90
2014,04,13,12,38,13.90
2014,04,13,12,39,13.90
2014,04,13,12,40,13.90
2014,04,13,12,41,13.90
2014,04,13,12,42,13.90
2014,04,13,12,43,13.80
2014,04,13,12,44,13.80
2014,04,13,12,45,13.80
2014,04,13,12,46,13.70
2014,04,13,12,47,13.60
2014,04,13,12,48,13.50
2014,04,13,12,49,13.40
2014,04,13,12,50,13.30
2014,04,13,12,51,13.20
2014,04,13,12,52,13.10
2014,04,13,12,53,13.10
2014,04,13,12,54,13.10
2014,04,13,12,55,13.20
2014,04,13,12,56,13.20
2014,04,13,12,57,13.30
2014,04,13,12,58,13.30
2014,04,13,12,59,13.30
2014,04,13,13,00,13.40
2014,04,13,13,01,13.40
2014,04,13,13,02,13.50
2014,04,13,13,03,13.50
2014,04,13,13,04,13.50
2014,04,13,13,05,13.50
2014,04,13,13,06,13.40
2014,04,13,13,07,13.40
2014,04,13,13,08,13.40
2014,04,13,13,09,13.40
2014,04,13,13,10,13.50
2014,04,13,13,11,13.50
2014,04,13,13,12,13.60
2014,04,13,13,13,13.60
2014,04,13,13,14,13.70
2014,04,13,13,15,13.70
2014,04,13,13,16,13.80
2014,04,13,13,17,13.80
2014,04,13,13,18,13.80
2014,04,13,13,19,13.80
2014,04,13,13,20,13.80
2014,04,13,13,21,13.80
2014,04,13,13,22,13.90
2014,04,13,13,23,13.90
2014,04,13,13,24,13.90
2014,04,13,13,25,13.90
2014,04,13,13,26,13.90
2014,04,13,13,27,14.00
2014,04,13,13,28,14.10
2014,04,13,13,29,14.10
2014,04,13,13,30,14.20
2014,04,13,13,31,14.20
2014,04,13,13,32,14.20
2014,04,13,13,33,14.30
2014,04,13,13,34,14.20
2014,04,13,13,35,14.20
2014,04,13,13,36,14.30
2014,04,13,13,37,14.30
2014,04,13,13,38,14.20
2014,04,13,13,39,14.20
2014,04,13,13,40,14.30
2014,04,13,13,41,14.30
2014,04,13,13,42,14.30
2014,04,13,13,43,14.30
2014,04,13,13,44,14.30
2014,04,13,13,45,14.30
2014,04,13,13,46,14.40
2014,04,13,13,47,14.40
2014,04,13,13,48,14.50
2014,04,13,13,49,14.50
2014,04,13,13,50,14.60
2014,04,13,13,51,14.60
2014,04,13,13,52,14.70
2014,04,13,13,53,14.70
2014,04,13,13,54,14.70
2014,04,13,13,55,14.70
2014,04,13,13,56,14.60
2014,04,13,13,57,14.60
2014,04,13,13,58,14.60
2014,04,13,13,59,14.50
2014,04,13,14,00,14.60
2014,04,13,14,01,14.60
2014,04,13,14,02,14.70
2014,04,13,14,03,14.70
2014,04,13,14,04,14.70
2014,04,13,14,05,14.70
2014,04,13,14,06,14.60
2014,04,13,14,07,14.60
2014,04,13,14,08,14.50
2014,04,13,14,09,14.50
2014,04,13,14,10,14.40
2014,04,13,14,11,14.20
2014,04,13,14,12,14.10
2014,04,13,14,13,14.10
2014,04,13,14,14,14.10
2014,04,13,14,15,14.20
2014,04,13,14,16,14.20
2014,04,13,14,17,14.30
2014,04,13,14,18,14.30
2014,04,13,14,19,14.20
2014,04,13,14,20,14.20
2014,04,13,14,21,14.20
2014,04,13,14,22,14.10
2014,04,13,14,23,14.20
2014,04,13,14,24,14.20
2014,04,13,14,25,14.30
2014,04,13,14,26,14.30
2014,04,13,14,27,14.30
2014,04,13,14,28,14.40
2014,04,13,14,29,14.40
2014,04,13,14,30,14.30
2014,04,13,14,31,14.30
2014,04,13,14,32,14.30
2014,04,13,14,33,14.40
2014,04,13,14,34,14.50
2014,04,13,14,35,14.50
2014,04,13,14,36,14.50
2014,04,13,14,37,14.60
2014,04,13,14,38,14.50
2014,04,13,14,39,14.50
2014,04,13,14,40,14.50
2014,04,13,14,41,14.50
2014,04,13,14,42,14.50
2014,04,13,14,43,14.50
2014,04,13,14,44,14.40
2014,04,13,14,45,14.40
2014,04,13,14,46,14.40
2014,04,13,14,47,14.30
2014,04,13,14,48,14.30
2014,04,13,14,49,14.30
2014,04,13,14,50,14.30
2014,04,13,14,51,14.30
2014,04,13,14,52,14.30
2014,04,13,14,53,14.40
2014,04,13,14,54,14.40
2014,04,13,14,55,14.40
2014,04,13,14,56,14.40
2014,04,13,14,57,14.50
2014,04,13,14,58,14.50
2014,04,13,14,59,14.60
2014,04,13,15,00,14.60
2014,04,13,15,01,14.60
2014,04,13,15,02,14.50
2014,04,13,15,03,14.40
2014,04,13,15,04,14.40
2014,04,13,15,05,14.40
2014,04,13,15,06,14.40
2014,04,13,15,07,14.40
2014,04,13,15,08,14.50
2014,04,13,15,09,14.60
2014,04,13,15,10,14.70
2014,04,13,15,11,14.80
2014,04,13,15,12,14.80
2014,04,13,15,13,14.90
2014,04,13,15,14,14.90
2014,04,13,15,15,14.90
2014,04,13,15,16,14.90
2014,04,13,15,17,14.90
2014,04,13,15,18,15.00
2014,04,13,15,19,15.10
2014,04,13,15,20,15.10
2014,04,13,15,21,15.00
2014,04,13,15,22,14.90
2014,04,13,15,23,14.90
2014,04,13,15,24,14.80
2014,04,13,15,25,14.80
2014,04,13,15,26,14.90
2014,04,13,15,27,15.00
2014,04,13,15,28,15.10
2014,04,13,15,29,15.10
2014,04,13,15,30,15.20
2014,04,13,15,31,15.20
2014,04,13,15,32,15.20
2014,04,13,15,33,15.20
2014,04,13,15,34,15.10
2014,04,13,15,35,15.00
2014,04,13,15,36,15.00
2014,04,13,15,37,14.90
2014,04,13,15,38,14.90
2014,04,13,15,39,14.80
2014,04,13,15,40,14.80
2014,04,13,15,41,14.70
2014,04,13,15,42,14.70
2014,04,13,15,43,14.70
2014,04,13,15,44,14.70
2014,04,13,15,45,14.70
2014,04,13,15,46,14.80
2014,04,13,15,47,14.80
2014,04,13,15,48,14.80
2014,04,13,15,49,14.80
2014,04,13,15,50,14.80
2014,04,13,15,51,14.80
2014,04,13,15,52,14.80
2014,04,13,15,53,14.80
2014,04,13,15,54,14.70
2014,04,13,15,55,14.80
2014,04,13,15,56,14.80
2014,04,13,15,57,14.90
2014,04,13,15,58,14.90
2014,04,13,15,59,15.00
2014,04,13,16,00,15.00
2014,04,13,16,01,15.10
2014,04,13,16,02,15.20
2014,04,13,16,03,15.30
2014,04,13,16,04,15.30
2014,04,13,16,05,15.30
2014,04,13,16,06,15.40
2014,04,13,16,07,15.40
2014,04,13,16,08,15.50
2014,04,13,16,09,15.50
2014,04,13,16,10,15.50
2014,04,13,16,11,15.50
2014,04,13,16,12,15.40
2014,04,13,16,13,15.40
2014,04,13,16,14,15.40
2014,04,13,16,15,15.50
2014,04,13,16,16,15.60
2014,04,13,16,17,15.60
2014,04,13,16,18,15.70
2014,04,13,16,19,15.70
2014,04,13,16,20,15.80
2014,04,13,16,21,15.80
2014,04,13,16,22,15.90
2014,04,13,16,23,15.90
2014,04,13,16,24,15.90
2014,04,13,16,25,15.90
2014,04,13,16,26,15.90
2014,04,13,16,27,15.80
2014,04,13,16,28,15.80
2014,04,13,16,29,15.80
2014,04,13,16,30,15.80
2014,04,13,16,31,15.80
2014,04,13,16,32,15.80
2014,04,13,16,33,15.80
2014,04,13,16,34,15.80
2014,04,13,16,35,15.80
2014,04,13,16,36,15.70
2014,04,13,16,37,15.70
2014,04,13,16,38,15.80
2014,04,13,16,39,15.80
2014,04,13,16,40,15.80
2014,04,13,16,41,15.80
2014,04,13,16,42,15.80
2014,04,13,16,43,15.80
2014,04,13,16,44,15.80
2014,04,13,16,45,15.90
2014,04,13,16,46,15.90
2014,04,13,16,47,16.00
2014,04,13,16,48,16.00
2014,04,13,16,49,16.00
2014,04,13,16,50,16.10
2014,04,13,16,51,16.10
2014,04,13,16,52,16.20
2014,04,13,16,53,16.30
2014,04,13,16,54,16.30
2014,04,13,16,55,16.30
2014,04,13,16,56,16.40
2014,04,13,16,57,16.40
2014,04,13,16,58,16.30
2014,04,13,16,59,16.20
2014,04,13,17,00,16.20
2014,04,13,17,01,16.10
2014,04,13,17,02,16.10
2014,04,13,17,03,16.10
2014,04,13,17,04,16.10
2014,04,13,17,05,16.10
2014,04,13,17,06,16.10
2014,04,13,17,07,16.10
2014,04,13,17,08,16.10
2014,04,13,17,09,16.10
2014,04,13,17,10,16.00
2014,04,13,17,11,16.00
2014,04,13,17,12,15.90
2014,04,13,17,13,15.80
2014,04,13,17,14,15.70
2014,04,13,17,15,15.60
2014,04,13,17,16,15.60
2014,04,13,17,17,15.50
2014,04,13,17,18,15.40
2014,04,13,17,19,15.40
2014,04,13,17,20,15.40
2014,04,13,17,21,15.30
2014,04,13,17,22,15.30
2014,04,13,17,23,15.20
2014,04,13,17,24,15.20
2014,04,13,17,25,15.10
2014,04,13,17,26,15.10
2014,04,13,17,27,15.00
2014,04,13,17,28,15.00
2014,04,13,17,29,14.90
2014,04,13,17,30,14.90
2014,04,13,17,31,14.90
2014,04,13,17,32,14.90
2014,04,13,17,33,14.90
2014,04,13,17,34,14.80
2014,04,13,17,35,14.80
2014,04,13,17,36,14.80
2014,04,13,17,37,14.70
2014,04,13,17,38,14.70
2014,04,13,17,39,14.80
2014,04,13,17,40,14.80
2014,04,13,17,41,14.90
2014,04,13,17,42,14.90
2014,04,13,17,43,15.00
2014,04,13,17,44,15.00